sat.trackr.live / text

‹ back to catalog

STARLINK-37079

NORAD 68186 · 2026-050V

PAYLOAD ACTIVE UNKNOWN

§ Identity

Operator
Country
US
Launch date
2026-03-14
Launch site
AFETR
Launch vehicle
Mass (kg)
RCS (m²)

Purposes: comms

External: N2YO · Heavens-Above · Gunter

§ Orbital elements

Epoch: 2026-09-20T04:36:34.250112Z

Period
93.85 min
Inclination
53.1578°
Eccentricity
0.0002810
Mean motion
15.34399121 rev/d
Perigee alt
460.8 km
Apogee alt
464.6 km
Semi-major
6,840.8 km
B*
6.5604e-4
RAAN
78.9678°
Arg perigee
76.4248°
Mean anomaly
283.7067°
Rev number
3,052

§ Raw data

STARLINK-370791 68186U 26050V   26263.19206308  .00021854  00000+0  65604-3 0  99932 68186  53.1578  78.9678 0002810  76.4248 283.7067 15.34399121 30528

JSON: /api/v1/satellites/68186 · /tle

For live sub-satellite position, see the globe view (requires WebGL).

§ Visibility from observer

Set your observer location to see the next 7 days of passes ≥ 10°. The values pass through the URL so the page stays shareable.

No JS? Fill the form by hand. The geolocation button needs JavaScript.